Location: Devore Heights
(34.2372°N, 117.4156°W)
Time: 00:02:25
(UTC+00:00)

Transit 4A - Pass Details

Date: 19 September 2024
Orbit: 864 x 978 km, 66.8° (Epoch: 13 October)

Event Time Altitude Azimuth Distance (km) Brightness Sun altitude
Rises 17:45:05 0° 345° (NNW) 3,611 10.6 46.9°
Reaches altitude 10° 17:48:05 10° 358° (N) 2,681 10.1 47.3°
Maximum altitude 17:53:13 26° 53° (NE) 1,804 9.8 48.1°
Drops below altitude 10° 17:58:24 10° 108° (ESE) 2,714 11.1 48.8°
Sets 18:01:26 0° 121° (ESE) 3,664 11.6 49.2°
